Anchorage Merrill, AK

1:28 AM AKDT on March 30, 2017 (GMT -0800)
Merrill

Weather History for PAMR - March, 2012

Change the Weather History Date:

Friday, March 2, 2012

  Actual Average Record
Temperature  
Mean Temperature 20 °F -  
Max Temperature 26 °F 30 °F 41 °F (2003)
Min Temperature 15 °F 14 °F -7 °F (2017)
Degree Days  
Heating Degree Days 44    
Moisture  
Dew Point 17 °F    
Average Humidity 79    
Maximum Humidity 91    
Minimum Humidity 63    
Precipitation  
Precipitation 0.00 in - - ()
Sea Level Pressure  
Sea Level Pressure 29.37 in    
Wind  
Wind Speed 1 mph (NE)    
Max Wind Speed 5 mph    
Max Gust Speed -    
Visibility 6 miles    
Events Snow    
Averages and records for this station are not official NWS values.
T = Trace of Precipitation, MM = Missing Value Source: NWS Daily Summary

Daily Weather History Graph

Daily Weather History Graph

Search for Another Location

Airport or City:

Trip Planner

Search our weather history database for the weather conditions in past years. The results will help you decide how hot, cold, wet, or windy it might be!

Date:

Astronomy

Mar. 02, 2012 Rise Set
Actual Time 7:54 AM AKST 6:29 PM AKST
Civil Twilight 7:11 AM AKST 7:12 PM AKST
Nautical Twilight 6:21 AM AKST 8:02 PM AKST
Astronomical Twilight 5:30 AM AKST 8:54 PM AKST
Moon 11:25 AM AKST (3/2) 5:18 AM AKST (3/2)
Length of Visible Light 12h 00m
Length of Day
10h 34m
Waxing Gibbous, 67% of the Moon is Illuminated
Mar 2
Waxing Gibbous
Mar 8
Full
Mar 14
Last Quarter
Mar 22
New
Mar 30
First Quarter

Hourly Weather History & Observations

Time (AKST) Temp. Windchill Dew Point Humidity Pressure Visibility Wind Dir Wind Speed Gust Speed Precip Events Conditions
12:53 AM 18.0 °F 12.7 °F 10.9 °F 74% 29.34 in 10.0 mi ENE 3.5 mph - N/A   Overcast
1:53 AM 19.9 °F - 10.9 °F 68% 29.34 in 10.0 mi Calm Calm - N/A   Overcast
3:53 AM 19.9 °F - 14.0 °F 78% 29.33 in 3.0 mi Calm Calm - 0.00 in Snow Light Snow
4:14 AM 19.4 °F - 15.8 °F 86% 29.32 in 2.5 mi Calm Calm - 0.00 in Snow Light Snow
4:53 AM 19.9 °F 14.9 °F 15.1 °F 81% 29.33 in 3.0 mi East 3.5 mph - 0.00 in Snow Light Snow
5:53 AM 19.0 °F - 15.1 °F 85% 29.32 in 7.0 mi Calm Calm - 0.00 in Snow Light Snow
6:53 AM 19.0 °F - 15.1 °F 85% 29.32 in 7.0 mi Calm Calm - 0.00 in Snow Light Snow
7:53 AM 15.1 °F - 12.9 °F 91% 29.32 in 4.0 mi Calm Calm - 0.00 in Snow Light Snow
8:29 AM 15.8 °F 10.2 °F 12.2 °F 86% 29.31 in 6.0 mi East 3.5 mph - 0.00 in Snow Light Snow
8:42 AM 15.8 °F - 12.2 °F 86% 29.31 in 10.0 mi Calm Calm - 0.00 in   Mostly Cloudy
8:53 AM 16.0 °F - 12.9 °F 88% 29.32 in 10.0 mi Calm Calm - 0.00 in   Mostly Cloudy
9:53 AM 19.0 °F - 15.1 °F 85% 29.32 in 10.0 mi Calm Calm - N/A   Overcast
10:53 AM 23.0 °F - 16.0 °F 74% 29.34 in 10.0 mi Calm Calm - N/A   Overcast
10:55 AM 23.0 °F - 15.8 °F 74% 29.33 in 10.0 mi Calm Calm - N/A   Overcast
11:53 AM 25.0 °F - 15.1 °F 66% 29.34 in 10.0 mi Calm Calm - N/A   Overcast
12:53 PM 26.1 °F 21.9 °F 15.1 °F 63% 29.35 in 10.0 mi NNW 3.5 mph - N/A   Overcast
1:06 PM 26.6 °F 22.6 °F 15.8 °F 64% 29.34 in 5.0 mi NNE 3.5 mph - 0.00 in Snow Light Snow
1:53 PM 24.1 °F 18.2 °F 17.1 °F 75% 29.35 in 4.0 mi East 4.6 mph - 0.00 in Snow Light Snow
2:53 PM 26.1 °F - 18.0 °F 71% 29.36 in 5.0 mi Calm Calm - 0.00 in   Haze
3:53 PM 26.1 °F - 19.0 °F 75% 29.37 in 10.0 mi Calm Calm - 0.00 in   Overcast
4:32 PM 26.6 °F 22.6 °F 17.6 °F 69% 29.37 in 3.0 mi NW 3.5 mph - 0.00 in Snow Light Snow
4:36 PM 26.6 °F - 17.6 °F 69% 29.37 in 3.0 mi Calm Calm - 0.00 in Snow Light Snow
4:53 PM 26.1 °F - 18.0 °F 71% 29.38 in 3.0 mi Calm Calm - 0.00 in Snow Light Snow
4:59 PM 26.6 °F - 19.4 °F 74% 29.37 in 1.8 mi Calm Calm - 0.00 in Snow Light Snow
5:14 PM 24.8 °F - 19.4 °F 80% 29.37 in 3.0 mi Calm Calm - 0.00 in Snow Light Snow
5:53 PM 24.1 °F - 19.9 °F 84% 29.39 in 10.0 mi Calm Calm - 0.00 in   Overcast
6:53 PM 23.0 °F - 19.0 °F 85% 29.41 in 5.0 mi Calm Calm - 0.00 in Snow Light Snow
7:53 PM 23.0 °F - 19.9 °F 88% 29.42 in 3.0 mi Calm Calm - 0.00 in Snow Light Snow
8:53 PM 25.0 °F - 21.0 °F 85% 29.44 in 10.0 mi Calm Calm - 0.00 in   Overcast
9:00 PM 24.8 °F - 21.2 °F 86% 29.43 in 10.0 mi Calm Calm - N/A   Overcast
9:53 PM 25.0 °F - 21.0 °F 85% 29.46 in 5.0 mi Calm Calm - 0.00 in Snow Light Snow
10:53 PM 25.0 °F - 21.9 °F 88% 29.48 in 7.0 mi Calm Calm - 0.00 in Snow Light Snow
11:05 PM 24.8 °F - 21.2 °F 86% 29.47 in 4.0 mi Calm Calm - 0.00 in Snow Light Snow
11:53 PM 25.0 °F - 21.9 °F 88% 29.50 in 3.0 mi Calm Calm - 0.00 in Snow Light Snow